{"data":{"norad_id":65346,"epoch":"2026-09-20T14:24:24.528960Z","epoch_age_seconds":108918,"freshness":"FRESH","line1":"1 65346U 25189Z   26263.60028390  .00027348  00000+0  81780-3 0  9996","line2":"2 65346  53.1601  18.9076 0001031  68.6294 291.4819 15.34392055 60998","mean_motion":15.34392055,"eccentricity":0.0001031,"inclination_deg":53.1601,"raan_deg":18.9076,"arg_perigee_deg":68.6294,"mean_anomaly_deg":291.4819,"bstar":0.0008178,"rev_number":6099,"period_min":93.848244020007,"perigee_km":462.02156145993,"apogee_km":463.43214758673,"semimajor_km":6840.8638545233,"source":"CELESTRAK","updated_at":"2026-09-21T09:00:35.573761Z"}}